Flag for Denmark Weather past 2 weeks in Vejle, Denmark

Now
32 °F

Passing clouds.


Feels Like: 27 °F
Forecast: 32 / 44 °F
Wind: 5 mph from Southwest

Location: Billund Lufthavn

Current Time: Mar 3, 2015 at 9:30:41 PM

Latest Report: Mar 3, 2015 at 8:50 PM


Visibility: N/A

Pressure: 29.77 "Hg

Humidity: 100%

Dew point: 32 °F

Location of VejleLocation

Historic Weather in Vejle — Graph

°F

Vejle temperature yesterday

Maximum temperature yesterday: 43 °F (at 12:50 PM)
Minimum temperature yesterday: 36 °F (at 6:50 PM)
Average temperature yesterday: 38 °F

Past Weeks' High & Low Weather Summary

 TemperatureHumidityPressure
High45 °F (Feb 18, 10:50 AM)100% (Feb 17, 9:20 AM)30.54 "Hg (Feb 17, 9:20 AM)
Low25 °F (Feb 28, 12:20 AM)66% (Feb 18, 10:50 AM)29.12 "Hg (Feb 23, 7:56 AM)
Average38 °F89%29.73 "Hg
* Reported Feb 16 8:20 PM — Mar 3 8:20 PM, Vejle, Weather by CustomWeather, © 2015

Note: Actual official high and low records may vary slightly from our data, if they occured in-between our weather recording intervals... More about our weather records

Advertising

Vejle weather history for previous 24 hours

 ConditionsComfort  
Time TempWeatherWind HumidityBarometerVisibility
8:20 PM
Tue, Mar 3
32 °FPassing clouds.2 mph100%29.77 "HgN/A
7:53 PM32 °FSnow flurries. Passing clouds.1 mph100%29.77 "Hg5 mi
7:50 PM32 °FSnow flurries. Passing clouds.6 mph100%29.77 "Hg1 mi
7:20 PM36 °FPassing clouds.5 mph87%29.77 "HgN/A
6:50 PM36 °FSprinkles. Partly cloudy.7 mph93%29.77 "HgN/A
6:20 PM36 °FPartly cloudy.3 mph87%29.74 "HgN/A
5:50 PM36 °FBroken clouds.5 mph87%29.74 "HgN/A
5:20 PM36 °FScattered clouds.6 mph87%29.74 "HgN/A
4:50 PM39 °FScattered clouds.12 mph75%29.74 "HgN/A
4:20 PM39 °FPartly sunny.10 mph81%29.74 "HgN/A
3:50 PM39 °FBroken clouds.8 mph81%29.77 "HgN/A
3:20 PM39 °FScattered clouds.10 mph81%29.77 "HgN/A
2:50 PM37 °FScattered clouds.15 mph87%29.77 "HgN/A
2:20 PM34 °FBroken clouds.8 mph93%29.77 "HgN/A
1:50 PM36 °FSprinkles. Partly sunny.15 mph81%29.77 "Hg2 mi
1:20 PM39 °FScattered clouds.15 mph75%29.77 "HgN/A
12:50 PM39 °FScattered clouds.15 mph81%29.77 "HgN/A
12:20 PM37 °FScattered clouds.13 mph81%29.77 "HgN/A
11:50 AM39 °FScattered clouds.13 mph75%29.77 "HgN/A
11:20 AM37 °FScattered clouds.15 mph81%29.74 "HgN/A
10:50 AM39 °FSprinkles. Broken clouds.13 mph87%29.74 "HgN/A
10:20 AM37 °FScattered clouds.10 mph87%29.74 "HgN/A
9:50 AM36 °FScattered clouds.17 mph93%29.74 "HgN/A
9:20 AM34 °FScattered clouds.7 mph93%29.74 "HgN/A
9:04 AM34 °FSprinkles. Broken clouds.14 mph93%29.74 "Hg5 mi
8:53 AM34 °FSnow flurries. Partly sunny.17 mph93%29.71 "Hg3 mi
8:20 AM36 °FScattered clouds.13 mph87%29.71 "HgN/A
7:50 AM36 °FScattered clouds.8 mph87%29.71 "HgN/A
7:20 AM36 °FScattered clouds.10 mph87%29.68 "HgN/A
6:50 AM36 °FPassing clouds.9 mph87%29.68 "HgN/A
6:20 AM34 °FPassing clouds.8 mph100%29.68 "HgN/A
5:50 AM36 °FPassing clouds.9 mph87%29.68 "HgN/A
5:20 AM36 °FPassing clouds.10 mph93%29.68 "HgN/A
4:50 AM37 °FSprinkles. Passing clouds.13 mph87%29.65 "HgN/A
4:20 AM36 °FPassing clouds.12 mph93%29.65 "HgN/A
3:50 AM36 °FPartly cloudy.13 mph93%29.62 "HgN/A
3:20 AM36 °FSprinkles. Passing clouds.10 mph93%29.62 "HgN/A
2:50 AM36 °FPassing clouds.10 mph93%29.62 "HgN/A
2:20 AM36 °FChilly.9 mph93%29.59 "HgN/A
1:50 AM36 °FChilly.13 mph93%29.59 "HgN/A
1:20 AM36 °FChilly.9 mph93%29.59 "HgN/A
12:50 AM36 °FClear.10 mph93%29.56 "Hg10 mi
12:20 AM36 °FClear.10 mph93%29.56 "Hg10 mi
11:50 PM
Mon, Mar 2
36 °FPassing clouds.9 mph93%29.53 "HgN/A
11:20 PM36 °FClear.9 mph93%29.53 "Hg10 mi
10:50 PM36 °FClear.9 mph93%29.53 "Hg10 mi
10:20 PM36 °FPassing clouds.9 mph93%29.50 "HgN/A
9:50 PM36 °FPassing clouds.10 mph93%29.50 "HgN/A
9:20 PM36 °FClear.8 mph93%29.50 "Hg10 mi
Weather by CustomWeather, © 2015

See weather overviewHow to use our weather pages